Karlovy Vary, Czech Republic

8:52 AM CEST on September 23, 2017 (GMT +0200)
Karlovy Vary

Weather History for LKKV - November, 2011

Change the Weather History Date:

Saturday, November 26, 2011

  Actual Average (EDQM) Record (EDQM)
Temperature  
Mean Temperature 34 °F -  
Max Temperature 37 °F 36 °F 55 °F (2006)
Min Temperature 30 °F 30 °F 17 °F (2013)
Degree Days  
Heating Degree Days 32    
Moisture  
Dew Point 33 °F    
Average Humidity 93    
Maximum Humidity 100    
Minimum Humidity 81    
Precipitation  
Precipitation 0.00 in - - ()
Sea Level Pressure  
Sea Level Pressure 30.35 in    
Wind  
Wind Speed 9 mph ()    
Max Wind Speed 13 mph    
Max Gust Speed 22 mph    
Visibility 4.7 miles    
Events Rain , Snow    
Averages and records for this station are not official NWS values.
T = Trace of Precipitation, MM = Missing Value Source: Averaged Metar Reports

Daily Weather History Graph

Daily Weather History Graph

Search for Another Location

Airport or City:

Trip Planner

Search our weather history database for the weather conditions in past years. The results will help you decide how hot, cold, wet, or windy it might be!

Date:

Astronomy

Nov. 26, 2011 Rise Set
Actual Time 7:38 AM CET 4:12 PM CET
Civil Twilight 7:01 AM CET 4:49 PM CET
Nautical Twilight 6:20 AM CET 5:29 PM CET
Astronomical Twilight 5:41 AM CET 6:08 PM CET
Moon 8:59 AM CET (11/26) 5:18 PM CET (11/26)
Length of Visible Light 9h 48m
Length of Day
8h 34m
New Moon, 2% of the Moon is Illuminated
Nov 26
New Moon
Dec 2
First Quarter
Dec 10
Full
Dec 18
Last Quarter
Dec 24
New

Hourly Weather History & Observations

Time (CET) Temp. Windchill Dew Point Humidity Pressure Visibility Wind Dir Wind Speed Gust Speed Precip Events Conditions
12:00 AM 30.2 °F 21.9 °F 28.4 °F 93% 30.30 in 2.8 mi West 9.2 mph - N/A   Mostly Cloudy
1:00 AM 30.2 °F 20.8 °F 28.4 °F 93% 30.30 in 2.8 mi West 11.5 mph - N/A   Overcast
2:00 AM 30.2 °F 21.3 °F 30.2 °F 100% 30.33 in - West 10.4 mph - N/A   Overcast
3:00 AM 30.2 °F 23.4 °F 30.2 °F 100% 30.33 in - West 6.9 mph - N/A   Overcast
4:00 AM 32.0 °F 26.4 °F 32.0 °F 100% 30.33 in 3.1 mi WSW 5.8 mph - N/A   Overcast
5:00 AM 32.0 °F 24.8 °F 32.0 °F 100% 30.33 in 4.3 mi WSW 8.1 mph - N/A   Overcast
6:00 AM 32.0 °F 24.8 °F 32.0 °F 100% 30.36 in 4.3 mi WSW 8.1 mph - N/A   Mostly Cloudy
7:00 AM 32.0 °F 25.6 °F 32.0 °F 100% 30.36 in 3.7 mi WSW 6.9 mph - N/A Snow Light Snow
7:30 AM 32.0 °F 25.6 °F 32.0 °F 100% 30.36 in 3.1 mi WSW 6.9 mph - N/A   Overcast
8:00 AM 32.0 °F 24.2 °F 32.0 °F 100% 30.39 in - West 9.2 mph - N/A   Overcast
8:30 AM 33.8 °F 25.8 °F 32.0 °F 93% 30.39 in 1.4 mi WSW 10.4 mph - N/A   Overcast
9:00 AM 33.8 °F 25.8 °F 33.8 °F 100% 30.39 in 1.1 mi WSW 10.4 mph - N/A Rain Light Rain
9:17 AM 33.8 °F 25.8 °F 33.8 °F 100% 30.39 in 0.7 mi WSW 10.4 mph 21.9 mph N/A Rain Light Rain
9:30 AM 33.8 °F 25.8 °F 33.8 °F 100% 30.39 in 0.9 mi West 10.4 mph - N/A Rain Light Rain
10:00 AM 33.8 °F 25.3 °F 33.8 °F 100% 30.39 in 1.2 mi West 11.5 mph - N/A   Overcast
10:30 AM 33.8 °F 25.8 °F 33.8 °F 100% 30.39 in 1.4 mi WSW 10.4 mph - N/A   Light Drizzle
11:00 AM 35.6 °F 27.5 °F 33.8 °F 93% 30.39 in - WSW 11.5 mph - N/A   Overcast
11:30 AM 35.6 °F 27.5 °F 33.8 °F 93% 30.39 in 5.6 mi West 11.5 mph - N/A   Overcast
12:00 PM 35.6 °F 27.1 °F 35.6 °F 100% 30.39 in 6.2 mi WSW 12.7 mph - N/A   Overcast
12:30 PM 35.6 °F 27.5 °F 35.6 °F 100% 30.39 in 6.2 mi WSW 11.5 mph - N/A   Overcast
1:00 PM 35.6 °F 28.0 °F 33.8 °F 93% 30.36 in 6.2 mi WSW 10.4 mph - N/A   Overcast
1:30 PM 35.6 °F 28.0 °F 33.8 °F 93% 30.36 in 6.2 mi WSW 10.4 mph - N/A   Overcast
2:00 PM 35.6 °F 28.6 °F 33.8 °F 93% 30.36 in 6.2 mi WSW 9.2 mph - N/A   Overcast
2:30 PM 37.4 °F 30.3 °F 33.8 °F 87% 30.36 in 6.2 mi WSW 10.4 mph - N/A   Overcast
3:00 PM 37.4 °F 29.8 °F 33.8 °F 87% 30.36 in 6.2 mi WSW 11.5 mph - N/A   Overcast
3:30 PM 37.4 °F 30.3 °F 33.8 °F 87% 30.36 in 6.2 mi WSW 10.4 mph - N/A   Overcast
4:00 PM 37.4 °F 29.8 °F 33.8 °F 87% 30.33 in 6.2 mi WSW 11.5 mph - N/A   Overcast
4:30 PM 35.6 °F 28.6 °F 33.8 °F 93% 30.33 in 6.2 mi SW 9.2 mph - N/A   Overcast
5:00 PM 35.6 °F 29.2 °F 33.8 °F 93% 30.33 in 6.2 mi WSW 8.1 mph - N/A   Overcast
5:30 PM 35.6 °F 29.2 °F 32.0 °F 87% 30.33 in 6.2 mi WSW 8.1 mph - N/A   Overcast
6:00 PM 37.4 °F 30.3 °F 32.0 °F 81% 30.33 in 6.2 mi WSW 10.4 mph - N/A   Overcast
6:30 PM 37.4 °F 29.8 °F 32.0 °F 81% 30.33 in 6.2 mi WSW 11.5 mph - N/A   Overcast
7:00 PM 37.4 °F 29.8 °F 32.0 °F 81% 30.33 in 6.2 mi WSW 11.5 mph - N/A   Overcast
7:30 PM 37.4 °F 30.3 °F 32.0 °F 81% 30.33 in 6.2 mi WSW 10.4 mph - N/A   Overcast
8:00 PM 37.4 °F 29.8 °F 32.0 °F 81% 30.33 in 6.2 mi WSW 11.5 mph - N/A   Overcast
9:00 PM 37.4 °F - 33.8 °F 87% 30.30 in - North - - N/A   Overcast
10:00 PM 37.4 °F 31.4 °F 33.8 °F 87% 30.27 in 6.2 mi SW 8.1 mph - N/A   Overcast
11:00 PM 37.4 °F 32.1 °F 33.8 °F 87% 30.27 in 6.2 mi WSW 6.9 mph - N/A   Overcast